Regional Weather Roundup
Issued by NWS

Home | Current Version | Previous Version | Text Only | Print | Product List | Glossary On
Versions: 1 2 3 4 5 6 7 8 9 10 11 12 13 14 15 16 17 18 19 20 21 22 23 24 25 26 27 28 29 30 31 32 33 34 35 36 37 38 39 40 41 42 43 44 45 46 47 48 49 50
000
ASUS43 KMKX 301100
RWRWI

WISCONSIN REGIONAL WEATHER ROUNDUP
NATIONAL WEATHER SERVICE MILWAUKEE/SULLIVAN WI
600 AM CDT SUN APR 30 2017

NOTE: "FAIR" INDICATES FEW OR NO CLOUDS BELOW 12,000 FEET WITH NO
SIGNIFICANT WEATHER AND/OR OBSTRUCTIONS TO VISIBILITY.

WIZ001-002-006>008-014>016-023>028-301200-
NORTHWEST WISCONSIN

CITY           SKY/WX    TMP DP  RH WIND       PRES   REMARKS
SUPERIOR ARPT  CLOUDY    37  29  73 NE9       30.22R WCI  30
ASHLAND        CLOUDY    36  28  73 NE7       30.22R WCI  30
HAYWARD        CLOUDY    37  21  52 NE7       30.15F WCI  32
SIREN          CLOUDY    38  21  49 CALM      30.14F
CUMBERLAND     CLOUDY    37  21  52 E9G17     30.12F WCI  31
RICE LAKE      MOCLDY    40  21  45 NE10      30.14F WCI  34
CHETEK         CLOUDY    40  24  52 NE6       30.12F
LADYSMITH      CLOUDY    39  22  50 NE8       30.15S WCI  34
EAU CLAIRE     NOT AVBL
MENOMONIE      CLOUDY    43  24  47 NE10      30.10F
NEW RICHMOND   CLOUDY    41  22  46 NE10      30.09F
OSCEOLA        CLOUDY    42  21  43 E10G16    30.12F
$$

WIZ003>005-009-010-017-018-301200-
NORTH CENTRAL WISCONSIN

CITY           SKY/WX    TMP DP  RH WIND       PRES   REMARKS
MANITOWISH WTR NOT AVBL
ARBOR VITAE    CLOUDY    39  23  53 E6        30.15S WCI  35
WOODRUFF       CLOUDY    39  23  53 E6        30.15S WCI  35
RHINELANDER    CLOUDY    37  23  56 E10       30.15R WCI  30
EAGLE RIVER    CLOUDY    36  20  53 E6        30.17R WCI  31
LAND O LAKES   PTCLDY    36  21  55 NE3       30.19R
PHILLIPS       MOCLDY    36  22  57 NE3       30.14F
TOMAHAWK       MOCLDY    36  22  56 NE6       30.16R WCI  31
MEDFORD        CLOUDY    37  24  57 E12       30.12R WCI  30
MERRILL        CLOUDY    38  25  59 NE6       30.15R WCI  33
$$

WIZ029-030-035-036-043>047-301200-
CENTRAL WISCONSIN

CITY           SKY/WX    TMP DP  RH WIND       PRES   REMARKS
WAUSAU         CLOUDY    39  24  55 NE9       30.11S WCI  33
MOSINEE        CLOUDY    37  25  60 NE12      30.12F WCI  30
MARSHFIELD     CLOUDY    39  26  59 E16G23    30.06F WCI  30
STEVENS POINT  CLOUDY    37  26  63 NE12      30.11F WCI  29
WAUPACA        CLOUDY    42  30  63 NE8       30.10S
WAUTOMA        CLOUDY    40  34  79 NE14      30.07F WCI  32
WISC RAPIDS    CLOUDY    40  29  64 E10G21    30.08F WCI  33
CAMP DOUGLAS   NOT AVBL
$$

WIZ011>013-019>022-031-037>040-048>050-301200-
NORTHEAST WISCONSIN

CITY           SKY/WX    TMP DP  RH WIND       PRES   REMARKS
ANTIGO         CLOUDY    37  24  60 E8        30.14R WCI  30
SHAWANO        CLOUDY    41  30  64 NE14      30.14S
OCONTO         CLOUDY    40  32  73 E7        30.16R
STURGEON BAY   LGT RAIN  39  36  89 NE10G18   30.17R WCI  32
GREEN BAY      CLOUDY    40  37  89 NE18G29   30.10F WCI  31
MANITOWOC      NOT AVBL
APPLETON       CLOUDY    39  34  81 NE13G20   30.07F WCI  32
CLINTONVILLE   CLOUDY    37  28  70 NE10      30.12S WCI  30
OSHKOSH        CLOUDY    40  36  86 NE17G25   30.07S WCI  31
$$

WIZ032>034-041-042-053>061-301200-
SOUTHWEST WISCONSIN

CITY           SKY/WX    TMP DP  RH WIND       PRES   REMARKS
LA CROSSE      CLOUDY    45  29  53 NE12      30.00F
SPARTA         CLOUDY    41  30  65 NE15      30.06F
VIROQUA        CLOUDY    40  33  75 E21       30.00F WCI  30
BOSCOBEL       CLOUDY    42  36  79 E14G25    29.97F
PRAIRIE DU CHI   N/A     42  34  75 NE10G21   29.97F
PLATTEVILLE    CLOUDY    39  39 100 NE17      29.95F WCI  30
$$

WIZ056-057-062-063-064-067-068-301200-
SOUTH CENTRAL WISCONSIN

CITY           SKY/WX    TMP DP  RH WIND       PRES   REMARKS
REEDSBURG      NOT AVBL
BARABOO/DELLS  CLOUDY    37  36  94 NE15      30.02F WCI  28
LONE ROCK      NOT AVBL
MINERAL POINT  CLOUDY    39  39 100 NE20G26   29.95F FOG     WCI  30
MADISON        DRIZZLE   40  38  93 NE13      29.99F FOG     WCI  32
MIDDLETON      CLOUDY    40  40  97 NE14      30.01F WCI  33
WATERTOWN      CLOUDY    40  40 100 NE14      30.02R WCI  32
MONROE         CLOUDY    41  37  87 NE17G24   29.95F
JANESVILLE     CLOUDY    41  41 100 E15G21    29.97S
$$

WIZ051-052-058>065-066-070>072-301200-
SOUTHEAST WISCONSIN

CITY           SKY/WX    TMP DP  RH WIND       PRES   REMARKS
MILWAUKEE      LGT RAIN  41  40  96 NE16G24   30.00F FOG
WAUKESHA       CLOUDY    37  37 100 NE21      30.01R FOG     WCI  27
MILWAUKEE/TIMM DRIZZLE   37  36  93 NE15G25   30.03R WCI  28
RACINE         CLOUDY    41  39  93 NE17G26   29.99F FOG
KENOSHA        CLOUDY    41  39  93 NE18G26   29.96F FOG
FOND DU LAC    CLOUDY    40  36  86 NE10G21   30.07R FOG     WCI  33
SHEBOYGAN      LGT RAIN  39  37  92 NE21G28   30.07R FOG     WCI  29
WEST BEND      LGT RAIN  37  37 100 NE15G29   30.04R WCI  28
JUNEAU         CLOUDY    39  37  95 NE9G20    30.04S WCI  32
$$

LSZ147-162-301200-
LAKE SUPERIOR

STATION/POSITION TIME  TEMP    WIND        PRES    WAVE
                       AIR SEA DIR/SP/G            HT/PER
                 (UTC) (F)     (DEG/KT/KT) (MB)    (FT/S)
DEVILS ISLAND    1000   38      70/ 14/ 16 1024.1F
PORT WING        0940   37      60/  9/ 12 1023.0F
SAXON HARBOR     1040   35     240/  2/  2 1022.7F
$$

LMZ867-665-643>646-301200-
LAKE MICHIGAN

STATION/POSITION TIME  TEMP    WIND        PRES    WAVE
                       AIR SEA DIR/SP/G            HT/PER
                 (UTC) (F)     (DEG/KT/KT) (MB)    (FT/S)
CHAMBERS ISLAND  1040   41      60/ 11/ 15 1021.7R
N MID LAKE BUOY  0950   38 37   70/ 14/ 16 1023.4F   2/ 4
NORTHPORT PIER   1040   40      80/ 16/ 19 1022.4R
KEWAUNEE LAKESHO 1030   40      50/ 12/ 19 1019.9R
SHEBOYGAN LAKESH 1000   39      30/ 24/ 27 1018.5F
PORT WASHINGTON  1040   41      50/ 18/ 24 1018.6R
MILWAUKEE LAKESH 1030   40      40/ 21/ 23   N/A
S MID LAKE BUOY  0950   40 40   50/ 17/ 21 1015.2F   5/ 5
KENOSHA   LAKESH 1000   41      50/ 24/ 28 1015.2
$$

TC  - TEMPERATURE IN CELSIUS
VSB - VISIBILITY IN STATUTE MILES
WCI - WIND CHILL INDEX
HX  - HEAT INDEX




USA.gov is the U.S. government's official web portal to all federal, state and local government web resources and services.